Location: Unspecified
(41.5000°N, 0.0000°E)
Time: 01:06:29
(UTC+00:00)

Vanguard 1 - Pass Details

Date: 23 June 2019
Orbit: 655 x 3829 km, 34.2° (Epoch: 17 August)

Event Time Altitude Azimuth Distance (km) Brightness Sun altitude
Exits shadow 01:32:21 27° 204° (SSW) 4,984 13.0 -21.8°
Maximum altitude 01:42:05 43° 157° (SSE) 3,561 12.5 -21.1°
Drops below altitude 10° 01:53:47 10° 92° (E) 4,342 13.7 -20.1°
Sets 01:56:44 0° 85° (E) 4,985 14.1 -19.8°
